Preview of NWS' New Version of Forecast
This preview is not operational and should not be used for support decisions.

Regional Weather Roundup (RWR)

Issued by National Weather Service (NWS)

                            
000
ASPQ40 PGUM 260810
RWRPQ 
WEATHER ROUNDUP FOR THE MARIANAS AND MICRONESIA
NATIONAL WEATHER SERVICE TIYAN GU
600 PM CHST WED JUN 26 2019

GUZ001>004-260900-
MARIANA ISLANDS-
  
CITY           SKY/WX    TMP DP  RH WIND       PRES   REMARKS
GUAM AIRPORT   MOSUNNY   84  73  70 E12       29.84R HX  91           
ANDERSEN AFB   CLOUDY    82  75  78 E10       29.85R                  
ROTA AIRPORT   PTSUNNY   82  73  74 E16       29.84R                  
TINIAN AP      PTSUNNY   88  75  66 E12       29.82R HX  97           
SAIPAN AP      MOSUNNY   84  75  74 E12       29.84R HX  92           

$$

PMZ161-260900-
REPUBLIC OF PALAU-
  
CITY           SKY/WX    TMP DP  RH WIND       PRES   REMARKS
KOROR AP       CLOUDY    81  75  83 CALM      29.76R                  
KOROR WSO      NOT AVBL                                               

$$

PMZ171>174-260900-
FEDERATED STATES OF MICRONESIA-
  
CITY           SKY/WX    TMP DP  RH WIND       PRES   REMARKS
YAP AIRPORT    PTSUNNY   86  77  74 E8        29.73F HX  97           
CHUUK AP       CLOUDY    82  81  94 VRB6      29.79R HX  95           
POHNPEI AP     NOT AVBL                                               
POHNPEI WSO    CLOUDY    82  79  89 CALM      29.84R HX  93           
KOSRAE AP      NOT AVBL                                               

$$

PMZ181-260900-
REPUBLIC OF THE MARSHALL ISLANDS-
  
CITY           SKY/WX    TMP DP  RH WIND       PRES   REMARKS
KWAJALEIN AP   CLEAR     82  77  83 E14       29.88R HX  91           
MAJURO AP      MOCLDY    84  77  79 NE17      29.87R HX  94           
MAJURO WSO     MOCLDY    82  75  78 E6        29.86R                  

$$